Tracking 29892 objects as of 21-Nov-2024
HD Live streaming from Space Station
objects crossing your sky now

GLOBALSTAR M025

Track GLOBALSTAR M025 now!
10-day predictions
GLOBALSTAR M025 is classified as:


NORAD ID: 25770
Int'l Code: 1999-031A
Perigee: 2,053.4 km
Apogee: 2,055.6 km
Inclination: 52.0 °
Period: 128.3 minutes
Semi major axis: 8425 km
RCS: 2.453 m2 (large)
Launch date: June 10, 1999
Source: Globalstar (GLOB)
Launch site: AIR FORCE EASTERN TEST RANGE (AFETR)
Your satellite tracking list
Your tracking list is empty




NASA's NSSDC Master Catalog

Two Line Element Set (TLE):
1 25770U 99031A   24325.93294226 -.00000033  00000-0  10496-2 0  9995
2 25770  51.9819 281.7071 0001274 132.1577 261.0800 11.22556751458326
Source of the keplerian elements: AFSPC